Time,TemperatureF,DewpointF,PressureIn,WindDirection,WindDirectionDegrees,WindSpeedMPH,WindSpeedGustMPH,Humidity,HourlyPrecipIn,Conditions,Clouds,dailyrainin,SoftwareType,DateUTC
2013-01-01 00:05:00,35.1,35.0,30.25,SE,138,0.0,1.0,99,0.00,,,0.00,weatherlink.com 1.10,2013-01-01 08:05:00,
2013-01-01 00:20:00,35.1,35.0,30.25,SE,138,0.0,0.0,99,0.00,,,0.00,weatherlink.com 1.10,2013-01-01 08:20:00,
2013-01-01 00:35:00,34.9,35.0,30.24,SE,138,0.0,1.0,99,0.00,,,0.00,weatherlink.com 1.10,2013-01-01 08:35:00,
2013-01-01 00:50:00,34.8,35.0,30.25,SE,138,0.0,0.0,99,0.00,,,0.00,weatherlink.com 1.10,2013-01-01 08:50:00,
2013-01-01 01:05:00,34.4,34.0,30.25,SE,138,0.0,1.0,98,0.00,,,0.00,weatherlink.com 1.10,2013-01-01 09:05:00,
2013-01-01 01:20:00,34.4,34.0,30.25,SE,138,0.0,0.0,99,0.00,,,0.00,weatherlink.com 1.10,2013-01-01 09:20:00,
2013-01-01 01:35:00,34.4,34.0,30.25,SE,138,0.0,0.0,99,0.00,,,0.00,weatherlink.com 1.10,2013-01-01 09:35:00,
2013-01-01 01:50:00,34.0,34.0,30.24,SE,138,0.0,1.0,99,0.00,,,0.00,weatherlink.com 1.10,2013-01-01 09:50:00,
2013-01-01 02:05:00,33.6,33.0,30.26,SE,138,0.0,0.0,99,0.00,,,0.00,weatherlink.com 1.10,2013-01-01 10:05:00,
2013-01-01 02:20:00,34.2,34.0,30.26,SE,138,0.0,1.0,99,0.00,,,0.00,weatherlink.com 1.10,2013-01-01 10:20:00,
2013-01-01 02:35:00,34.4,34.0,30.26,SE,138,0.0,0.0,99,0.00,,,0.00,weatherlink.com 1.10,2013-01-01 10:35:00,
2013-01-01 02:50:00,33.7,34.0,30.26,SE,138,0.0,1.0,99,0.00,,,0.00,weatherlink.com 1.10,2013-01-01 10:50:00,
2013-01-01 03:05:00,33.2,33.0,30.26,SE,138,0.0,1.0,99,0.00,,,0.00,weatherlink.com 1.10,2013-01-01 11:05:00,
2013-01-01 03:20:00,33.9,34.0,30.25,SE,138,0.0,0.0,99,0.00,,,0.00,weatherlink.com 1.10,2013-01-01 11:20:00,
2013-01-01 03:35:00,34.4,34.0,30.26,SE,138,0.0,0.0,100,0.00,,,0.00,weatherlink.com 1.10,2013-01-01 11:35:00,
2013-01-01 03:50:00,35.1,35.0,30.26,SE,138,0.0,0.0,100,0.00,,,0.00,weatherlink.com 1.10,2013-01-01 11:50:00,
2013-01-01 04:05:00,35.3,35.0,30.25,SE,138,0.0,1.0,100,0.00,,,0.00,weatherlink.com 1.10,2013-01-01 12:05:00,
2013-01-01 04:20:00,34.7,35.0,30.25,SE,138,0.0,0.0,99,0.00,,,0.00,weatherlink.com 1.10,2013-01-01 12:20:00,
2013-01-01 04:35:00,34.8,35.0,30.25,SE,138,0.0,0.0,99,0.00,,,0.00,weatherlink.com 1.10,2013-01-01 12:35:00,
2013-01-01 04:50:00,34.7,35.0,30.26,SE,138,0.0,0.0,99,0.00,,,0.00,weatherlink.com 1.10,2013-01-01 12:50:00,
2013-01-01 05:05:00,34.5,34.0,30.26,SE,138,0.0,1.0,99,0.00,,,0.00,weatherlink.com 1.10,2013-01-01 13:05:00,
2013-01-01 05:20:00,34.8,35.0,30.26,SE,138,0.0,0.0,100,0.00,,,0.00,weatherlink.com 1.10,2013-01-01 13:20:00,
2013-01-01 05:35:00,34.2,34.0,30.26,SE,138,0.0,1.0,99,0.00,,,0.00,weatherlink.com 1.10,2013-01-01 13:35:00,
2013-01-01 05:51:00,33.5,33.0,30.27,SE,138,0.0,0.0,99,0.00,,,0.00,weatherlink.com 1.10,2013-01-01 13:51:00,
2013-01-01 06:06:00,33.8,34.0,30.27,SE,138,0.0,1.0,99,0.00,,,0.00,weatherlink.com 1.10,2013-01-01 14:06:00,
2013-01-01 06:21:00,33.6,33.0,30.27,SE,138,0.0,0.0,99,0.00,,,0.00,weatherlink.com 1.10,2013-01-01 14:21:00,
2013-01-01 06:36:00,33.3,33.0,30.27,SE,138,0.0,1.0,99,0.00,,,0.00,weatherlink.com 1.10,2013-01-01 14:36:00,
2013-01-01 06:51:00,33.5,33.0,30.27,SE,138,0.0,1.0,99,0.00,,,0.00,weatherlink.com 1.10,2013-01-01 14:51:00,
2013-01-01 07:06:00,33.6,33.0,30.27,SE,138,0.0,1.0,99,0.00,,,0.00,weatherlink.com 1.10,2013-01-01 15:06:00,
2013-01-01 07:21:00,33.7,34.0,30.27,SE,138,0.0,1.0,100,0.00,,,0.00,weatherlink.com 1.10,2013-01-01 15:21:00,
2013-01-01 07:36:00,33.2,33.0,30.27,SE,138,0.0,1.0,99,0.00,,,0.00,weatherlink.com 1.10,2013-01-01 15:36:00,
2013-01-01 07:51:00,32.6,32.0,30.27,SE,138,0.0,0.0,99,0.00,,,0.00,weatherlink.com 1.10,2013-01-01 15:51:00,
2013-01-01 08:06:00,32.1,32.0,30.27,SE,138,0.0,1.0,99,0.00,,,0.00,weatherlink.com 1.10,2013-01-01 16:06:00,
2013-01-01 08:21:00,32.7,33.0,30.27,SE,138,0.0,0.0,99,0.01,,,0.01,weatherlink.com 1.10,2013-01-01 16:21:00,
2013-01-01 08:36:00,34.5,35.0,30.27,SE,138,0.0,1.0,100,0.01,,,0.01,weatherlink.com 1.10,2013-01-01 16:36:00,
2013-01-01 08:51:00,37.3,37.0,30.27,SE,138,0.0,1.0,97,0.01,,,0.01,weatherlink.com 1.10,2013-01-01 16:51:00,
2013-01-01 09:06:00,37.4,36.0,30.28,SE,138,0.0,1.0,94,0.01,,,0.01,weatherlink.com 1.10,2013-01-01 17:06:00,
2013-01-01 09:21:00,38.8,36.0,30.28,SSW,192,0.0,3.0,89,0.00,,,0.01,weatherlink.com 1.10,2013-01-01 17:21:00,
2013-01-01 09:36:00,38.9,36.0,30.29,SSW,192,0.0,2.0,89,0.00,,,0.01,weatherlink.com 1.10,2013-01-01 17:36:00,
2013-01-01 09:51:00,40.7,38.0,30.30,SSW,192,0.0,2.0,89,0.00,,,0.01,weatherlink.com 1.10,2013-01-01 17:51:00,
2013-01-01 10:06:00,41.9,36.0,30.30,SSE,164,1.0,2.0,78,0.00,,,0.01,weatherlink.com 1.10,2013-01-01 18:06:00,
2013-01-01 10:21:00,45.4,35.0,30.29,East,94,1.0,2.0,67,0.00,,,0.01,weatherlink.com 1.10,2013-01-01 18:21:00,
2013-01-01 10:36:00,47.1,38.0,30.28,South,188,4.0,6.0,70,0.00,,,0.01,weatherlink.com 1.10,2013-01-01 18:36:00,
2013-01-01 10:51:00,47.2,37.0,30.29,SSW,192,3.0,5.0,68,0.00,,,0.01,weatherlink.com 1.10,2013-01-01 18:51:00,
2013-01-01 11:06:00,47.9,38.0,30.29,South,190,0.0,4.0,69,0.00,,,0.01,weatherlink.com 1.10,2013-01-01 19:06:00,
2013-01-01 11:21:00,49.7,39.0,30.29,SSE,158,0.0,3.0,66,0.00,,,0.01,weatherlink.com 1.10,2013-01-01 19:21:00,
2013-01-01 11:36:00,51.2,36.0,30.28,WNW,297,0.0,4.0,57,0.00,,,0.01,weatherlink.com 1.10,2013-01-01 19:36:00,
2013-01-01 11:51:00,50.3,38.0,30.27,SSE,167,0.0,3.0,63,0.00,,,0.01,weatherlink.com 1.10,2013-01-01 19:51:00,
2013-01-01 12:06:00,50.6,37.0,30.27,South,176,0.0,4.0,60,0.00,,,0.01,weatherlink.com 1.10,2013-01-01 20:06:00,
2013-01-01 12:21:00,50.5,36.0,30.27,WSW,249,1.0,5.0,58,0.00,,,0.01,weatherlink.com 1.10,2013-01-01 20:21:00,
2013-01-01 12:36:00,51.8,36.0,30.26,South,169,1.0,3.0,56,0.00,,,0.01,weatherlink.com 1.10,2013-01-01 20:36:00,
2013-01-01 12:51:00,53.8,36.0,30.26,North,352,0.0,4.0,52,0.00,,,0.01,weatherlink.com 1.10,2013-01-01 20:51:00,
2013-01-01 13:07:00,55.2,38.0,30.25,NNW,334,0.0,1.0,52,0.00,,,0.01,weatherlink.com 1.10,2013-01-01 21:07:00,
2013-01-01 13:22:00,56.0,35.0,30.25,East,97,0.0,3.0,46,0.00,,,0.01,weatherlink.com 1.10,2013-01-01 21:22:00,
2013-01-01 13:37:00,56.2,38.0,30.25,NNE,27,0.0,2.0,50,0.00,,,0.01,weatherlink.com 1.10,2013-01-01 21:37:00,
2013-01-01 13:52:00,56.9,36.0,30.25,North,359,0.0,4.0,46,0.00,,,0.01,weatherlink.com 1.10,2013-01-01 21:52:00,
2013-01-01 14:07:00,56.2,36.0,30.25,SW,227,2.0,3.0,47,0.00,,,0.01,weatherlink.com 1.10,2013-01-01 22:07:00,
2013-01-01 14:22:00,54.5,35.0,30.25,SW,215,3.0,5.0,48,0.00,,,0.01,weatherlink.com 1.10,2013-01-01 22:22:00,
2013-01-01 14:37:00,54.2,37.0,30.25,South,186,2.0,6.0,52,0.00,,,0.01,weatherlink.com 1.10,2013-01-01 22:37:00,
2013-01-01 14:52:00,54.4,35.0,30.24,South,179,1.0,5.0,48,0.00,,,0.01,weatherlink.com 1.10,2013-01-01 22:52:00,
2013-01-01 15:07:00,55.5,35.0,30.25,SW,215,0.0,3.0,46,0.00,,,0.01,weatherlink.com 1.10,2013-01-01 23:07:00,
2013-01-01 15:22:00,55.8,35.0,30.25,South,183,2.0,4.0,45,0.00,,,0.01,weatherlink.com 1.10,2013-01-01 23:22:00,
2013-01-01 15:37:00,55.3,36.0,30.25,SSW,199,2.0,3.0,49,0.00,,,0.01,weatherlink.com 1.10,2013-01-01 23:37:00,
2013-01-01 15:52:00,54.6,35.0,30.24,South,188,3.0,5.0,48,0.00,,,0.01,weatherlink.com 1.10,2013-01-01 23:52:00,
2013-01-01 16:07:00,54.1,35.0,30.24,SSW,199,0.0,4.0,48,0.00,,,0.01,weatherlink.com 1.10,2013-01-02 00:07:00,
2013-01-01 16:22:00,53.6,35.0,30.23,SW,215,2.0,3.0,49,0.00,,,0.01,weatherlink.com 1.10,2013-01-02 00:22:00,
2013-01-01 16:37:00,52.6,34.0,30.23,SSW,213,2.0,3.0,50,0.00,,,0.01,weatherlink.com 1.10,2013-01-02 00:37:00,
2013-01-01 16:52:00,51.6,34.0,30.23,SSW,204,0.0,2.0,51,0.00,,,0.01,weatherlink.com 1.10,2013-01-02 00:52:00,
2013-01-01 17:07:00,50.2,34.0,30.23,SSW,209,0.0,1.0,54,0.00,,,0.01,weatherlink.com 1.10,2013-01-02 01:07:00,
2013-01-01 17:22:00,48.3,34.0,30.23,SSW,209,0.0,1.0,59,0.00,,,0.01,weatherlink.com 1.10,2013-01-02 01:22:00,
2013-01-01 17:37:00,45.9,35.0,30.24,SSW,209,0.0,0.0,67,0.00,,,0.01,weatherlink.com 1.10,2013-01-02 01:37:00,
2013-01-01 17:52:00,44.1,36.0,30.24,SSW,209,0.0,0.0,73,0.00,,,0.01,weatherlink.com 1.10,2013-01-02 01:52:00,
2013-01-01 18:07:00,43.0,35.0,30.24,SSW,209,0.0,0.0,74,0.00,,,0.01,weatherlink.com 1.10,2013-01-02 02:07:00,
2013-01-01 18:22:00,42.3,35.0,30.24,SSW,209,0.0,0.0,76,0.00,,,0.01,weatherlink.com 1.10,2013-01-02 02:22:00,
2013-01-01 18:37:00,41.3,35.0,30.25,SSW,209,0.0,0.0,79,0.00,,,0.01,weatherlink.com 1.10,2013-01-02 02:37:00,
2013-01-01 18:52:00,40.6,35.0,30.25,SSW,209,0.0,0.0,81,0.00,,,0.01,weatherlink.com 1.10,2013-01-02 02:52:00,
2013-01-01 19:07:00,39.3,35.0,30.25,SSW,209,0.0,1.0,84,0.00,,,0.01,weatherlink.com 1.10,2013-01-02 03:07:00,
2013-01-01 19:22:00,38.9,35.0,30.26,SSW,209,0.0,1.0,84,0.00,,,0.01,weatherlink.com 1.10,2013-01-02 03:22:00,
2013-01-01 19:37:00,38.9,34.0,30.25,SSW,209,0.0,0.0,83,0.00,,,0.01,weatherlink.com 1.10,2013-01-02 03:37:00,
2013-01-01 19:52:00,38.9,35.0,30.25,SSW,209,0.0,0.0,84,0.00,,,0.01,weatherlink.com 1.10,2013-01-02 03:52:00,
2013-01-01 20:07:00,38.7,34.0,30.25,SSW,209,0.0,1.0,84,0.00,,,0.01,weatherlink.com 1.10,2013-01-02 04:07:00,
2013-01-01 20:22:00,38.8,35.0,30.25,SSW,209,0.0,0.0,85,0.00,,,0.01,weatherlink.com 1.10,2013-01-02 04:22:00,
2013-01-01 20:37:00,37.7,34.0,30.26,SSW,209,0.0,1.0,86,0.00,,,0.01,weatherlink.com 1.10,2013-01-02 04:37:00,
2013-01-01 20:52:00,37.1,34.0,30.26,SSW,209,0.0,1.0,88,0.00,,,0.01,weatherlink.com 1.10,2013-01-02 04:52:00,
2013-01-01 21:07:00,36.3,33.0,30.26,SSW,209,0.0,1.0,89,0.00,,,0.01,weatherlink.com 1.10,2013-01-02 05:07:00,
2013-01-01 21:22:00,36.4,34.0,30.26,SSW,209,0.0,1.0,89,0.00,,,0.01,weatherlink.com 1.10,2013-01-02 05:22:00,
2013-01-01 21:37:00,36.1,34.0,30.26,SSW,209,0.0,1.0,90,0.00,,,0.01,weatherlink.com 1.10,2013-01-02 05:37:00,
2013-01-01 21:52:00,35.8,34.0,30.27,SSW,209,0.0,1.0,91,0.00,,,0.01,weatherlink.com 1.10,2013-01-02 05:52:00,
2013-01-01 22:07:00,35.5,33.0,30.26,SSW,209,0.0,1.0,92,0.00,,,0.01,weatherlink.com 1.10,2013-01-02 06:07:00,
2013-01-01 22:22:00,35.4,33.0,30.26,SSW,209,1.0,1.0,92,0.00,,,0.01,weatherlink.com 1.10,2013-01-02 06:22:00,
2013-01-01 22:37:00,35.4,33.0,30.26,SSW,209,0.0,1.0,92,0.00,,,0.01,weatherlink.com 1.10,2013-01-02 06:37:00,
2013-01-01 22:52:00,35.6,33.0,30.26,SSW,209,0.0,0.0,91,0.00,,,0.01,weatherlink.com 1.10,2013-01-02 06:52:00,
2013-01-01 23:07:00,35.9,33.0,30.26,SSW,209,0.0,1.0,90,0.00,,,0.01,weatherlink.com 1.10,2013-01-02 07:07:00,
2013-01-01 23:22:00,36.4,33.0,30.26,WSW,238,0.0,3.0,88,0.00,,,0.01,weatherlink.com 1.10,2013-01-02 07:22:00,
2013-01-01 23:37:00,36.6,33.0,30.26,South,169,0.0,2.0,85,0.00,,,0.01,weatherlink.com 1.10,2013-01-02 07:37:00,
2013-01-01 23:52:00,36.5,33.0,30.26,South,169,0.0,1.0,87,0.00,,,0.01,weatherlink.com 1.10,2013-01-02 07:52:00,